Location: Home
(42.5358°N, 72.7383°W)
Time: 05:58:36
(UTC-05:00)

Explorer 11/Cluster Stage 4 - Pass Details

Date: 07 December 2021
Orbit: 467 x 1255 km, 28.8° (Epoch: 25 January)

Event Time Altitude Azimuth Distance (km) Brightness Sun altitude
Rises 02:52:04 0° 247° (WSW) 3,401 - -46.1°
Reaches altitude 10° 02:54:54 10° 234° (SW) 2,601 - -45.6°
Maximum altitude 02:59:55 24° 182° (S) 1,966 - -44.7°
Exits shadow 03:04:11 15° 140° (SE) 2,636 9.4 -43.9°
Drops below altitude 10° 03:05:39 10° 132° (SE) 3,020 9.9 -43.6°
Sets 03:09:14 0° 120° (ESE) 4,077 10.8 -43.0°
